Time+07,TemperatureF,Dew PointF,Humidity,Sea Level PressureIn,VisibilityMPH,Wind Direction,Wind SpeedMPH,Gust SpeedMPH,PrecipitationIn,Events,Conditions,WindDirDegrees,DateUTC
12:00 AM,78.8,77.0,94,29.77,5.6,Calm,Calm,-,N/A,Rain,Light Rain,0,2013-08-03 17:00:00
12:30 AM,78.8,77.0,94,29.77,5.6,Calm,Calm,-,N/A,,Mostly Cloudy,0,2013-08-03 17:30:00
1:00 AM,78.8,77.0,94,29.74,5.6,Calm,Calm,-,N/A,,Mostly Cloudy,0,2013-08-03 18:00:00
7:00 AM,,,,,,Calm,Calm,,,,,,2013-08-04 00:00:00
7:00 AM,78.8,77.0,94,29.77,5.6,Calm,Calm,-,N/A,,Scattered Clouds,0,2013-08-04 00:00:00
7:30 AM,80.6,77.0,89,29.77,5.6,Calm,Calm,-,N/A,,Scattered Clouds,0,2013-08-04 00:30:00
8:00 AM,80.6,77.0,89,29.77,5.6,Calm,Calm,-,N/A,,Scattered Clouds,0,2013-08-04 01:00:00
8:30 AM,82.4,75.2,79,29.80,6.2,Calm,Calm,-,N/A,,Scattered Clouds,0,2013-08-04 01:30:00
9:30 AM,84.2,75.2,74,29.80,6.2,Calm,Calm,-,N/A,,Scattered Clouds,0,2013-08-04 02:30:00
10:00 AM,84.2,73.4,70,29.80,6.2,Calm,Calm,-,N/A,,Scattered Clouds,0,2013-08-04 03:00:00
10:30 AM,86.0,73.4,66,29.80,6.2,Calm,Calm,-,N/A,,Scattered Clouds,0,2013-08-04 03:30:00
11:00 AM,87.8,73.4,62,29.80,6.2,Calm,Calm,-,N/A,,Scattered Clouds,0,2013-08-04 04:00:00
11:30 AM,86.0,73.4,66,29.80,6.2,Calm,Calm,-,N/A,,Scattered Clouds,0,2013-08-04 04:30:00
12:00 PM,87.8,73.4,62,29.80,6.2,Calm,Calm,-,N/A,,Scattered Clouds,0,2013-08-04 05:00:00
12:30 PM,87.8,73.4,62,29.80,6.2,Variable,3.5,-,N/A,,Scattered Clouds,0,2013-08-04 05:30:00
1:00 PM,86.0,75.2,70,29.77,6.2,South,10.4,-,N/A,,Scattered Clouds,180,2013-08-04 06:00:00
1:30 PM,86.0,75.2,70,29.77,6.2,South,6.9,-,N/A,,Partly Cloudy,180,2013-08-04 06:30:00
2:00 PM,86.0,75.2,70,29.74,6.2,North,5.8,-,N/A,,Partly Cloudy,10,2013-08-04 07:00:00
2:30 PM,84.2,75.2,74,29.71,6.2,North,5.8,-,N/A,,Partly Cloudy,350,2013-08-04 07:30:00
3:00 PM,84.2,75.2,74,29.71,6.2,WSW,3.5,-,N/A,,Partly Cloudy,250,2013-08-04 08:00:00
3:30 PM,87.8,75.2,66,29.71,6.2,Calm,Calm,-,N/A,,Partly Cloudy,0,2013-08-04 08:30:00
4:00 PM,86.0,75.2,70,29.71,6.2,Calm,Calm,-,N/A,,Scattered Clouds,0,2013-08-04 09:00:00
4:30 PM,78.8,75.2,89,29.74,3.7,NW,18.4,-,N/A,Rain,Light Rain,310,2013-08-04 09:30:00
5:00 PM,78.8,75.2,89,29.74,5.0,NW,9.2,-,N/A,Rain,Rain,320,2013-08-04 10:00:00
5:30 PM,78.8,75.2,89,29.74,5.0,South,3.5,-,N/A,Rain,Rain,190,2013-08-04 10:30:00
6:00 PM,78.8,75.2,89,29.74,5.0,Variable,2.3,-,N/A,Rain,Light Rain,0,2013-08-04 11:00:00
6:30 PM,78.8,75.2,89,29.74,5.0,Variable,2.3,-,N/A,Rain,Light Rain,0,2013-08-04 11:30:00
7:00 PM,78.8,75.2,89,29.77,5.0,Variable,1.2,-,N/A,Rain,Light Rain,0,2013-08-04 12:00:00
7:30 PM,78.8,75.2,89,29.77,5.6,Variable,2.3,-,N/A,,Mostly Cloudy,0,2013-08-04 12:30:00
8:00 PM,78.8,75.2,89,29.77,5.6,Calm,Calm,-,N/A,,Mostly Cloudy,0,2013-08-04 13:00:00
8:30 PM,78.8,75.2,89,29.80,5.6,Calm,Calm,-,N/A,,Mostly Cloudy,0,2013-08-04 13:30:00
9:00 PM,78.8,75.2,89,29.80,5.6,Calm,Calm,-,N/A,,Mostly Cloudy,0,2013-08-04 14:00:00
9:30 PM,80.6,75.2,84,29.80,5.6,Calm,Calm,-,N/A,,Mostly Cloudy,0,2013-08-04 14:30:00
10:00 PM,78.8,75.2,89,29.83,5.6,Calm,Calm,-,N/A,,Mostly Cloudy,0,2013-08-04 15:00:00
10:30 PM,78.8,75.2,89,29.83,5.6,Calm,Calm,-,N/A,,Mostly Cloudy,0,2013-08-04 15:30:00
11:00 PM,78.8,75.2,89,29.83,5.6,Calm,Calm,-,N/A,,Mostly Cloudy,0,2013-08-04 16:00:00
11:30 PM,78.8,75.2,89,29.83,5.6,Calm,Calm,-,N/A,,Mostly Cloudy,0,2013-08-04 16:30:00